STARLINK-11593, 63318

Orbit data source: Space-Track

STARLINK-11593, 63318 is a payload satellite owned by SpaceX/Seattle (US) in LEO that was launched on Tue, 18 Mar 2025 UTC via an FALCON 9 launch vehicle from the Air Force Eastern Test Range (AFETR). Payload-class satellites include a variety of spacecraft equipped with specific instruments for various scientific and technological missions. These include communications satellites like Starlink; space stations such as the ISS; scientific satellites like the Hubble; Earth observation satellites from companies like Planet Labs, Umbra, and HawkEye 360; GPS; miniature CubeSats for education and research; and military/defense satellites.

Loading next visibility...
Identifier
63318, 2025-057M
Orbit
LEO
Last TLE update
1 day ago
Origin
Manufacturer
SpaceX/Seattle
Mission
Operational Commercial Communications
Bus & Motor
STARLINK V2M, Unknown motor
Mass
730 kg wet, ~700 kg dry
Launch date (UTC)
2025-03-18 (2 months ago)
Launch vehicle
FALCON 9
Launch site
Air Force Eastern Test Range (AFETR)
Object type
Payload
Rocket body
Debris
Shape & HBR
Box + 2 Pan, 29 m
Radar Cross Section
36.964 m², Large (>1 m²)

Expand to show TLE details & history

TLE from 1 day ago
0 STARLINK-11593
1 63318U 25057M   25128.19295744 -.00001398  00000-0 -74074-5 0  9999
2 63318  43.0000 305.7210 0001792 276.8953  83.1711 15.70813317  9160
Epoch: 2025-05-08T04:37Z
Definitive object data (Epoch: 2025-05-08T04:37:51.522Z)
Latitude
-0.00001°
Longitude
9.98934°
Altitude
356.199 km
Speed
7.697 km/s
True Right ascension
20h 22m 53s
True Declination
0° 00' 00"
Sunlit
Object was in daylight at TLE epoch
Visualization TLE readout
Latitude
26.63288°
Longitude
151.37916°
Altitude
357.622 km
Speed
7.698 km/s
Apparent Right ascension
04h 01m 23s
Apparent Declination
-6° 26' 45"
Sunlit
Object is in daylight
Visualization observer readout
Local Sidereal Time
13:46:53
Azimuth
308.949° NW
Elevation
-44.962°
Doppler factor
1
Orbital elements
Apogee altitude
359.76 km
Perigee altitude
357.346 km
Semi-major axis
6,736.69 km
Eccentricity
0.0001792
Inclination
43°
RAAN
305.721°
Arg. of periapsis
276.8953°
True anomaly
83.19149°
Mean anomaly
83.1711°
Eccentric anomaly
83.18129°
Mean motion
3.9253 °/min
BSTAR
-0.0000074074
Orbital period
91.71 mins
Loading maneuver chart data...
Loading SW <> Apogee altitude chart data...
Loading historical data...
Loading historical data...
Loading historical data...
Loading historical data...
Loading historical data...
Loading historical data...
Loading historical data...

STARLINK-11593 Visibility forecast

Observer location: undefined°, undefined°

Span
Click to sort rows by Start time (UTC) header in descending order
Start Az.
Max El. time (UTC)
Max El. Az.
Max El.
End time (UTC)
End Az.
4 mins2025-05-09 14:24:11.267Z195.186° SSW2025-05-09 14:26:11.267Z147.265° SSE19.669°2025-05-09 14:28:11.267Z99.837° ESE
4 mins2025-05-09 16:00:11.267Z257.999° W2025-05-09 16:02:11.267Z22.318° NNE44.037°2025-05-09 16:04:11.267Z69.231° E
4 mins2025-05-09 19:13:11.267Z290.335° WNW2025-05-09 19:14:11.267Z296.601° NW41.119°2025-05-09 19:17:11.267Z106.75° ESE
|